Regional Weather Roundup
Issued by NWS

Home | Current Version | Previous Version | Text Only | Print | Product List | Glossary Off
Versions: 1 2 3 4 5 6 7 8 9 10 11 12 13 14 15 16 17 18 19 20 21 22 23 24 25 26 27 28 29 30 31 32 33 34 35 36 37 38 39 40 41 42 43 44 45 46 47 48 49 50

000
ASUS45 KCYS 121210
RWRWY

WYOMING REGIONAL WEATHER ROUNDUP
NATIONAL WEATHER SERVICE CHEYENNE WY
500 AM MST FRI FEB 12 2016

NOTE:  "FAIR" INDICATES FEW OR NO CLOUDS BELOW 12,000 FEET
WITH NO SIGNIFICANT WEATHER AND/OR OBSTRUCTIONS TO VISIBILITY.

WYZ001-121300-
YELLOWSTONE NATIONAL PARK

CITY           SKY/WX    TMP DP  RH WIND       PRES   REMARKS
LK YELLOWSTONE   N/A     30  27  88 CALM      30.36S
6HR MIN TEMP:  29; 6HR MAX TEMP:  32; 6HR PCP:  0.04;

W YELLOWSTONE  NOT AVBL

$$
WYZ002>013-054>058-071-098>099-121300-
NORTHERN WYOMING

CITY           SKY/WX    TMP DP  RH WIND       PRES   REMARKS
JACKSON        CLOUDY    27  27 100 E6        30.36R WCI  20
CODY           CLOUDY    32  18  55 CALM      30.24F
GREYBULL       CLOUDY    35  29  78 CALM      30.25R
6HR MIN TEMP:  34; 6HR MAX TEMP:  42;

WORLAND        CLOUDY    32  27  81 SW6       30.25R WCI  26
6HR MIN TEMP:  31; 6HR MAX TEMP:  35;

SHERIDAN       CLOUDY    32  27  80 CALM      30.28S
6HR MIN TEMP:  27; 6HR MAX TEMP:  39;

BUFFALO        CLOUDY    38  25  59 NW5       30.27S WCI  34
6HR MIN TEMP:  32; 6HR MAX TEMP:  40;

GILLETTE       MOCLDY    27  25  92 NE6       30.29R WCI  20
6HR MIN TEMP:  23; 6HR MAX TEMP:  35;

HULETT         CLOUDY    30  28  93 CALM      30.32R FOG
NEWCASTLE      FAIR      32  28  86 N10       30.27R WCI  24

$$
WYZ014>020-022>026-101>103-121300-
CENTRAL WYOMING

CITY           SKY/WX    TMP DP  RH WIND       PRES   REMARKS
BIG PINEY      FAIR      19  16  88 NE3       30.37S
6HR MIN TEMP:  19; 6HR MAX TEMP:  31;

PINEDALE         N/A     23  21  93 SW5       30.37S WCI  17
DUBOIS         FAIR      36  32  87 NW18G25   30.26S WCI  25
LANDER         FAIR      36  25  64 CALM      30.24R
6HR MIN TEMP:  32; 6HR MAX TEMP:  41;

RIVERTON       FAIR      29  23  78 CALM      30.25S
6HR MIN TEMP:  29; 6HR MAX TEMP:  37;

CASPER         CLOUDY    35  26  69 W8        30.26S WCI  29
6HR MIN TEMP:  31; 6HR MAX TEMP:  37;

DOUGLAS        CLOUDY    30  28  92 CALM      30.28R
6HR MIN TEMP:  27; 6HR MAX TEMP:  31;


$$
WYZ021-027>030-104>119-121300-
SOUTHERN WYOMING

CITY           SKY/WX    TMP DP  RH WIND       PRES   REMARKS
EVANSTON       FAIR      32  14  47 S7        30.37F WCI  26
6HR MIN TEMP:  30; 6HR MAX TEMP:  37;

FORT BRIDGER   SUNNY     36  19  51 SW13      30.39F WCI  27
ROCK SPRINGS   MOCLDY    32  18  56 W6        30.36S WCI  26
6HR MIN TEMP:  31; 6HR MAX TEMP:  36;

DIXON          CLOUDY    25  18  76 E5        30.41F WCI  19
RAWLINS        CLOUDY    36  22  56 W8        30.32R WCI  30
6HR MIN TEMP:  34; 6HR MAX TEMP:  37;

SARATOGA       CLOUDY    32  25  74 E7        30.34S WCI  26
LARAMIE        MOCLDY    36  23  59 SW9       30.28S WCI  29
6HR MIN TEMP:  28; 6HR MAX TEMP:  38;

CHEYENNE       MOCLDY    32  24  72 CALM      30.27R
6HR MIN TEMP:  29; 6HR MAX TEMP:  37;

TORRINGTON     MOCLDY    32  26  78 W3        30.27R
6HR MIN TEMP:  30; 6HR MAX TEMP:  35;

PINE BLUFFS    FAIR      30  27  86 S7        30.29S WCI  23

$$



USA.gov is the U.S. government's official web portal to all federal, state and local government web resources and services.